Back to catalog

COSMOS 1275 DEB

AlivePO
NORAD 13817·DEBRIS·🇷🇺 Russia

Launched Jun 4, 1981 from Plesetsk Cosmodrome

Loading…

Next Passes (next 24 hours)

TLE

FreshSource: Space-Track

Epoch: Sep 14, 2026, 02:51 UTC

1 13817U 81053HM  26257.11877083  .00001195  00000-0  69122-3 0  9993
2 13817  82.9408 207.6333 0023066  91.3730 269.0087 14.08072653268483

Track COSMOS 1275 DEB in real time with AllMySat

Download on the App Store